Content
SEND FEEDBACK

Daily
Averages
Monthly
Summary
Algeria

BATNA, ALGERIA


Home > Africa > Algeria
Elevation: 3451 feet     Latitude: 35 33N     Longitude: 006 11E

WEATHER
 
SELECT A DAY
Number of Records: 118,309;   Date Range: 9/25/01 - 8/27/14
 
SHARE

PRINT THIS DATA

[ ← Previous Day ]
WEATHER ALMANAC - FEBRUARY 13, 2013
[ Next Day → ]
[ °C ]   °F
Weather ElementAverageHighLow
Temperature37.7 °F44.6 °F (11:00 am)28.4 °F (7:00 am)
Dewpoint32.3 °F37.4 °F (3:00 pm)26 °F (7:00 am)
Humidity80.1 %93 % (2:00 am)52 % (10:00 am)
Barometer29.96 in30.04 in (10:00 pm)29.89 in (1:00 am)
Wind Speed15.9 mph26.5 mph (1:00 pm)
Weather ElementAverage
Visibility6.2 mi
Wind DirectionW (271.7 °)

Weather ElementTotal
Precipitation---
Heating Degree Days28.5 (Base 65)
Averaged from 30 records on February 13, 2013
WEATHER CONDITIONS BREAKOUT
WIND DIRECTION BREAKOUT
WEATHER BY HOUR - FEBRUARY 13, 2013
[ °C ]   °F
Local TimeTemperatureDewpointHumidityBarometerVisibilityWind DirectionWind SpeedGust SpeedPrecipitationEventsConditions
1:00 AM35.6 °F32.0 °F87 %29.89 in6.2 miWSW (250°)16.1 mphMostly Cloudy
2:00 AM33.8 °F32.0 °F93 %29.89 in6.2 miWest (260°)19.6 mphScattered Clouds
3:00 AM33.8 °F32.0 °F93 %29.92 in6.2 miWest (260°)21.9 mphScattered Clouds
4:00 AM32.0 °F29.0 °F84 %6.0 miNNW (330°)11.5 mphPartly Cloudy
4:00 AM32.0 °F28.4 °F87 %29.95 in6.2 miNNW (330°)11.5 mphScattered Clouds
5:00 AM35.6 °F32.0 °F87 %29.95 in6.2 miSW (230°)18.4 mphMostly Cloudy
6:00 AM30.2 °F28.4 °F93 %29.95 in6.2 miWest (280°)9.2 mphScattered Clouds
7:00 AM28.4 °F26.6 °F93 %29.98 in6.2 miSSE (150°)6.9 mphScattered Clouds
7:00 AM29.0 °F26.0 °F83 %6.0 miSSE (150°)6.9 mphPartly Cloudy
8:00 AM28.4 °F26.6 °F93 %29.98 in6.2 miSouth (180°)6.9 mphScattered Clouds
9:00 AM33.8 °F26.6 °F75 %29.98 in6.2 miNE (40°)6.9 mphScattered Clouds
10:00 AM40.0 °F29.0 °F52 %9.0 miNW (320°)6.9 mphPartly Cloudy
10:00 AM39.2 °F28.4 °F65 %29.95 in6.2 miNW (320°)6.9 mphScattered Clouds
11:00 AM44.6 °F30.2 °F57 %29.95 in6.2 miWest (280°)24.2 mphScattered Clouds
12:00 PM44.6 °F33.8 °F66 %29.98 in6.2 miWest (280°)20.7 mphScattered Clouds
1:00 PM44.6 °F33.8 °F66 %29.95 in6.2 miWest (280°)26.5 mphScattered Clouds
1:00 PM44.0 °F35.0 °F59 %6.0 miWest (280°)26.5 mphMostly Cloudy
2:00 PM44.6 °F35.6 °F71 %29.95 in6.2 miWest (280°)18.4 mphScattered Clouds
3:00 PM41.0 °F37.4 °F87 %29.95 in6.2 miNNW (340°)16.1 mphRainLight Rain
4:00 PM42.0 °F36.0 °F74 %6.0 miNW (320°)20.7 mphRainLight Rain
4:00 PM42.8 °F37.4 °F81 %29.95 in6.2 miNW (320°)20.7 mphScattered Clouds
5:00 PM42.8 °F35.6 °F76 %29.95 in6.2 miNW (320°)16.1 mphScattered Clouds
6:00 PM41.0 °F35.6 °F81 %29.95 in6.2 miWNW (290°)16.1 mphMostly Cloudy
7:00 PM39.2 °F35.6 °F87 %29.98 in6.2 miWNW (300°)19.6 mphMostly Cloudy
7:00 PM40.0 °F35.0 °F75 %6.0 miWNW (300°)19.6 mphPartly Cloudy
8:00 PM37.4 °F33.8 °F87 %29.98 in6.2 miWNW (290°)19.6 mphMostly Cloudy
9:00 PM37.4 °F33.8 °F87 %29.98 in6.2 miWNW (290°)16.1 mphMostly Cloudy
10:00 PM37.0 °F34.0 °F84 %6.0 miWNW (290°)13.8 mphMostly Cloudy
10:00 PM37.4 °F33.8 °F87 %30.04 in6.2 miWNW (290°)13.8 mphMostly Cloudy
11:00 PM37.4 °F35.6 °F93 %30.04 in5.0 miWNW (300°)18.4 mphRainLight Rain
Hourly data recorded from DABT, located miles away from Batna, Algeria







STORIES FROM OUR PARTNERS